GW4079 Weather Reports


Display with metric or nautical units.
time (UTC)temp
F
wind
direction
speed
MPH
gust
MPH
rain 1hr
in
rain 24hr
in
rain mn
in
humidity
%
barometer
mb
20260504004611 72 34 13.0 21.0 0.00 0.00 0.00 19 1008.4
20260504003100 73 352 17.0 23.0 0.00 0.00 0.00 18 1008.5
20260504001549 73 22 14.0 21.0 0.00 0.00 0.00 19 1008.7
20260504000045 74 12 14.0 20.0 0.00 0.00 0.00 19 1008.6
20260503234604 74 5 15.0 26.0 0.00 0.00 0.00 19 1008.8
20260503233110 73 26 10.0 24.0 0.00 0.00 0.00 19 1008.7
20260503231557 74 346 14.0 19.0 0.00 0.00 0.00 19 1008.8
20260503230115 75 348 16.0 21.0 0.00 0.00 0.00 17 1008.8
20260503224555 74 15 15.0 21.0 0.00 0.00 0.00 19 1009.1
20260503223059 74 321 11.0 21.0 0.00 0.00 0.00 19 1008.9
20260503221557 74 336 17.0 23.0 0.00 0.00 0.00 18 1009.2
20260503220103 74 349 10.0 16.0 0.00 0.00 0.00 19 1009.5
20260503214606 74 25 14.0 20.0 0.00 0.00 0.00 19 1009.6
20260503213104 73 5 10.0 21.0 0.00 0.00 0.00 18 1009.7
20260503211606 73 352 15.0 22.0 0.00 0.00 0.00 18 1010.1
20260503210058 74 338 14.0 21.0 0.00 0.00 0.00 19 1010.3
20260503204819 74 26 14.0 21.0 0.00 0.00 0.00 18 1010.4
20260503203110 73 5 12.0 22.0 0.00 0.00 0.00 18 1010.6
20260503201810 73 350 12.0 21.0 0.00 0.00 0.00 16 1010.9
20260503200111 73 301 15.0 22.0 0.00 0.00 0.00 18 1010.8
20260503194542 72 277 11.0 20.0 0.00 0.00 0.00 19 1011.1
20260503193054 73 347 9.0 19.0 0.00 0.00 0.00 19 1011.4
20260503191544 71 290 10.0 21.0 0.00 0.00 0.00 20 1011.6
20260503190051 72 346 15.0 23.0 0.00 0.00 0.00 19 1011.8
20260503184602 70 330 13.0 22.0 0.00 0.00 0.00 21 1011.8
20260503183043 71 261 9.0 20.0 0.00 0.00 0.00 22 1012.1
20260503181549 71 306 18.0 23.0 0.00 0.00 0.00 21 1012.2
20260503180057 71 326 15.0 22.0 0.00 0.00 0.00 22 1012.5
20260503174602 70 327 10.0 22.0 0.00 0.00 0.00 23 1012.8
20260503173047 71 338 13.0 24.0 0.00 0.00 0.00 23 1012.9
20260503171537 69 313 9.0 17.0 0.00 0.00 0.00 26 1013.1
20260503130108 48 309 4.0 10.0 0.00 0.00 0.00 71 1014.1
20260503110108 41 320 0.0 0.0 0.00 0.00 0.00 77 1015.1
20260503081547 45 44 0.0 0.0 0.00 0.00 0.00 69 1015.8
20260503071554 46 360 0.0 0.0 0.00 0.00 0.00 66 1016.0
20260503060105 49 218 0.0 1.0 0.00 0.00 0.00 56 1016.5
20260503054549 50 201 0.0 0.0 0.00 0.00 0.00 52 1016.6
20260503053048 51 201 0.0 2.0 0.00 0.00 0.00 51 1016.6
20260503051837 53 201 0.0 4.0 0.00 0.00 0.00 48 1016.5
20260503050054 56 205 4.0 6.0 0.00 0.00 0.00 44 1016.5
20260503044552 56 275 3.0 15.0 0.00 0.00 0.00 44 1017.0
20260503043050 54 142 4.0 5.0 0.00 0.00 0.00 45 1016.7
20260503041550 54 110 0.0 4.0 0.00 0.00 0.00 45 1016.8
20260503040105 54 113 4.0 6.0 0.00 0.00 0.00 46 1016.7
20260503034613 53 114 4.0 6.0 0.00 0.00 0.00 46 1016.6
20260503033056 53 115 4.0 6.0 0.00 0.00 0.00 45 1016.6
20260503031836 54 115 4.0 7.0 0.00 0.00 0.00 43 1016.3
20260503030105 54 107 5.0 7.0 0.00 0.00 0.00 43 1016.3
20260503024558 56 110 4.0 7.0 0.00 0.00 0.00 41 1016.2
20260503023053 58 107 3.0 4.0 0.00 0.00 0.00 39 1016.1
20260503021557 61 107 3.0 4.0 0.00 0.00 0.00 37 1016.3
20260503020101 63 105 5.0 9.0 0.00 0.00 0.00 35 1016.2
20260503014625 65 105 4.0 8.0 0.00 0.00 0.00 34 1016.3
20260503013101 65 93 2.0 6.0 0.00 0.00 0.00 34 1016.3
20260503011554 65 74 0.0 0.0 0.00 0.00 0.00 34 1016.2
20260503010058 64 74 0.0 0.0 0.00 0.00 0.00 34 1016.3